CAPE
0 0 0 0 0 0 0 0 0 0 0 0 0 0 0 0 0 0 0 0 0 0 0 0 0 0 0 1 0 1 6 2 0 0 0 0 0 0 0 0 0 0 0
0 0 0 0 0 0 0 0 0 0 1 2 1 0 0 0 0 0 0 0 0 0 0 0 0 0 0 1 1 5 0 0 0 0 0 0 0 0 0 0 0 0 0
0 0 0 0 0 0 0 0 0 0 0 1 2 0 0 0 0 0 0 0 0 0 0 0 0 0 0 0 2 2 0 0 0 0 0 0 0 0 0 0 0 0 0
0 0 0 0 0 0 0 0 0 0 0 0 2 4 7 11 4 2 0 0 0 0 0 0 0 0 0 0 0 1 1 0 0 0 0 0 0 0 0 0 0 0 0
0 0 0 0 0 0 0 0 0 0 0 0 0 2 6 3 3 1 0 0 0 0 0 0 0 0 0 0 0 0 6 4 1 0 0 0 0 0 0 0 0 0 0
0 0 0 0 0 0 0 0 0 0 0 0 0 0 0 2 1 0 1 0 0 0 0 0 0 0 0 0 0 0 0 7 9 10 2 0 1 0 0 0 0 0 0
0 0 0 0 0 0 0 0 0 0 0 0 0 0 0 0 2 2 2 2 1 1 0 0 0 0 0 0 0 0 0 0 1 4 7 11 6 1 0 0 0 0 0
0 0 0 0 0 0 0 0 0 0 0 0 0 0 0 1 0 0 1 2 2 2 0 0 0 0 0 0 0 0 0 0 0 0 5 7 11 3 0 0 0 0 0
0 0 0 0 0 0 0 0 0 0 0 0 0 0 0 0 0 0 0 0 1 0 0 0 0 0 0 0 1 0 0 0 0 0 1 0 0 9 0 0 0 0 0
0 0 0 0 0 0 0 0 0 0 0 0 0 0 0 0 0 0 0 0 0 1 1 1 1 1 1 1 2 2 0 0 0 0 0 4 4 0 4 1 0 0 0
0 0 0 0 0 0 0 0 0 0 0 0 0 0 0 0 0 0 0 0 0 0 0 0 1 2 2 1 1 1 3 1 0 0 0 0 6 10 2 0 1 0 0
0 0 0 0 0 0 0 0 0 0 0 0 0 0 0 0 0 0 0 0 0 0 0 0 0 0 1 1 1 1 1 1 1 1 0 0 0 0 1 0 0 0 0
0 0 0 0 0 0 0 0 0 0 0 0 0 0 0 0 0 0 0 0 0 0 0 0 0 0 0 0 0 1 1 1 1 1 2 2 1 0 0 0 1 0 0
0 0 0 0 0 0 0 0 0 0 0 0 0 0 0 0 0 0 0 0 0 0 0 0 0 0 0 0 0 0 0 0 0 1 1 1 1 1 1 1 0 0 0
0 0 0 0 0 0 0 0 0 0 0 0 0 0 0 0 0 0 0 0 0 0 0 0 0 0 0 0 0 0 0 0 0 0 1 1 2 1 1 1 1 1 0
0 0 0 0 0 0 0 0 0 0 0 0 0 0 0 0 0 0 0 0 0 0 0 0 0 0 0 0 0 1 0 0 0 0 0 1 1 1 1 1 1 2 1
0 0 0 0 0 0 0 0 0 0 0 0 0 0 0 0 0 0 0 0 0 0 0 0 0 0 0 0 0 0 0 0 0 0 0 0 1 1 1 0 0 0 1
0 0 0 0 0 0 0 0 0 0 0 0 0 0 0 0 0 0 0 0 0 0 0 0 0 0 0 0 0 0 0 0 0 0 0 0 0 0 1 1 0 0 0
0 0 0 0 0 0 0 0 0 0 0 0 0 0 0 0 0 0 0 0 0 0 0 0 0 0 0 0 0 0 0 0 0 0 0 0 0 0 4 1 0 0 0
0 0 0 0 0 0 0 0 0 0 0 0 0 0 0 0 0 0 0 0 0 0 0 0 0 0 0 0 0 0 0 0 0 0 0 0 0 5 8 2 0 0 0
0 0 0 0 0 0 0 0 0 0 0 0 0 0 0 0 0 0 0 0 0 0 0 0 0 0 0 0 0 0 0 0 0 0 0 0 0 1 2 16 1 0 2
0 0 0 0 0 0 0 0 0 0 0 0 0 0 0 0 0 0 0 0 0 0 0 0 0 0 0 0 0 0 1 1 0 0 0 0 0 0 0 2 1 19 8
0 0 0 0 0 0 0 0 0 0 0 0 0 0 0 0 0 0 0 0 0 0 0 0 0 0 0 0 0 0 1 2 0 0 0 1 2 1 0 0 0 0 0
0 0 0 0 0 0 0 0 0 0 0 0 0 0 0 0 0 0 0 0 0 0 0 0 0 0 0 0 0 0 0 0 4 6 0 5 12 15 2 1 0 0 0
0 0 0 0 0 0 0 0 0 0 0 0 0 0 0 0 0 0 0 0 0 0 0 0 0 0 1 0 3 10 14 10 6 21 15 6 4 0 0 0 0 0 0
0 0 0 0 0 0 0 0 0 0 0 0 0 0 0 0 0 0 0 0 0 0 0 4 6 7 16 11 14 11 10 6 7 2 0 1 8 6 1 1 0 0 0
CIN
0 0 0 0 0 0 0 0 0 0 0 0 0 0 0 0 0 0 0 0 0 0 0 0 0 0 0 -2 -8 -5 -13 -19 0 0 0 0 0 0 0 0 0 0 0
0 0 0 0 0 0 0 0 0 0 0 0 0 0 0 0 0 0 0 0 0 0 0 0 0 0 0 -4 -4 -8 0 0 0 0 0 0 0 0 0 0 0 0 0
0 0 0 0 0 0 0 0 0 0 0 0 0 0 0 0 0 0 0 0 0 0 0 0 0 0 0 0 -6 -7 0 -3 0 0 0 0 0 0 0 0 0 0 0
0 0 0 0 0 0 0 0 0 0 0 0 0 0 0 0 0 0 0 0 0 0 0 0 0 0 0 0 -2 -8 -18 -4 0 0 0 0 0 0 0 0 0 0 0
0 0 0 0 0 0 0 0 0 0 0 0 0 0 0 0 0 0 0 0 0 0 0 0 0 0 0 0 0 0 -14 -15 -13 0 0 0 0 0 0 0 0 0 0
0 0 0 0 0 0 0 0 0 0 0 0 0 0 0 0 0 0 0 0 0 0 0 0 0 0 0 0 0 0 0 -11 -7 -7 -16 -10 -6 -5 0 0 0 0 0
0 0 0 0 0 0 0 0 0 0 0 0 0 0 0 0 0 0 0 0 0 0 0 0 0 0 0 0 0 0 0 -1 -4 -9 -9 -12 -19 -16 0 0 0 0 0
0 0 0 0 0 0 0 0 0 0 0 0 0 0 0 0 0 0 0 0 0 0 0 0 0 0 0 0 0 0 0 0 -3 -2 -9 -12 -11 -15 -2 0 0 0 0
0 0 0 0 0 0 0 0 0 0 0 0 0 0 0 0 0 0 0 0 0 0 0 0 0 0 0 0 0 0 0 0 0 0 -2 -1 0 -15 -20 0 0 0 0
0 0 0 0 0 0 0 0 0 0 0 0 0 0 0 0 0 0 0 0 0 0 0 0 0 0 0 0 0 0 0 0 0 0 0 -5 -2 -3 -12 -9 0 0 0
0 0 0 0 0 0 0 0 0 0 0 0 0 0 0 0 0 0 0 0 0 0 0 0 0 0 0 0 0 0 0 0 0 0 0 0 -5 -4 -4 -7 -17 0 0
0 0 0 0 0 0 0 0 0 0 0 0 0 0 0 0 0 0 0 0 0 0 0 0 0 0 0 0 0 0 0 0 0 0 0 0 0 0 -12 -5 0 -1 0
0 0 0 0 0 0 0 0 0 0 0 0 0 0 0 0 0 0 0 0 0 0 0 0 0 0 0 0 0 0 0 0 0 0 0 0 0 0 0 0 -4 0 0
0 0 0 0 0 0 0 0 0 0 0 0 0 0 0 0 0 0 0 0 0 0 0 0 0 0 0 0 0 0 0 0 0 0 0 0 0 0 0 0 0 0 0
0 0 0 0 0 0 0 0 0 0 0 0 0 0 0 0 0 0 0 0 0 0 0 0 0 0 0 0 -1 0 0 0 0 0 0 0 0 0 0 0 0 0 0
0 0 0 0 0 0 0 0 0 0 0 0 0 0 0 0 0 0 0 0 0 0 0 0 0 0 0 0 0 -1 0 0 0 0 0 0 0 0 0 0 0 0 0
0 0 0 0 0 0 0 0 0 0 0 0 0 0 0 0 0 0 0 0 0 0 0 0 0 0 0 0 0 0 0 0 0 0 0 0 0 0 0 0 0 0 0
0 0 0 0 0 0 0 0 0 0 0 0 0 0 0 0 0 0 0 0 0 0 0 0 0 0 0 0 0 0 0 0 0 0 0 0 0 0 0 0 0 0 0
0 0 0 0 0 0 0 0 0 0 0 0 0 0 0 0 0 0 0 0 0 0 0 0 0 0 0 0 0 0 0 0 0 0 0 0 0 0 0 0 0 0 0
0 0 0 0 0 0 0 0 0 0 0 0 0 0 0 0 0 0 0 0 0 0 0 0 0 0 0 0 0 0 0 0 0 0 0 0 0 -1 0 0 -1 0 0
0 0 0 0 0 0 0 0 0 0 0 0 0 0 0 0 0 0 0 0 0 0 0 0 0 0 0 0 0 0 0 0 0 0 0 0 0 -3 -3 -1 0 0 0
0 0 0 0 0 0 0 0 0 0 0 0 0 0 0 0 0 0 0 0 0 0 0 0 0 0 0 0 0 0 -3 -6 0 0 0 0 0 0 -1 -4 0 0 0
0 0 0 0 0 0 0 0 0 0 0 0 0 0 0 0 0 0 0 0 0 0 0 0 0 0 0 0 0 -2 -2 -5 -2 0 -3 -7 -6 -6 -1 -1 0 0 0
0 0 0 0 0 0 0 0 0 0 0 0 0 0 0 0 0 0 0 0 0 0 0 0 0 0 0 0 0 0 0 0 -2 -2 0 -3 -3 -5 -5 -3 0 0 0
0 0 0 0 0 0 0 0 0 0 0 0 0 0 0 0 0 0 0 0 0 0 0 -5 -3 -2 -4 -1 -2 -3 -1 -2 -3 -1 -2 -2 -1 -1 0 0 0 0 0
0 0 0 0 0 0 0 0 0 0 0 0 0 0 0 0 0 0 0 0 0 -1 -2 -3 -4 -2 -2 -4 -5 -6 -6 -6 -6 -2 -7 -2 -1 -3 -1 -1 -1 0 0
Wind_Speed
20 22 23 24 25 26 26 27 27 27 26 26 25 23 24 24 22 22 22 23 23 20 21 22 21 20 21 17 18 19 17 16 16 19 22 21 19 20 19 18 18 18 17
21 23 24 25 26 27 28 28 28 28 28 27 27 24 27 24 23 25 24 23 24 24 23 24 23 21 23 24 19 20 19 20 16 20 22 25 26 24 20 19 18 16 17
23 24 25 26 27 28 29 29 29 29 29 29 27 25 24 25 25 28 27 27 23 25 25 27 27 26 24 25 22 21 24 25 22 21 23 25 27 26 22 21 22 21 20
23 24 25 26 28 28 28 28 29 29 29 29 27 25 24 25 28 29 29 27 27 27 27 28 28 29 28 28 26 22 23 24 28 27 27 26 25 28 28 23 23 22 22
23 24 25 26 27 28 29 29 29 29 29 29 28 27 26 27 28 29 29 30 30 29 30 31 30 31 31 31 31 29 25 24 27 28 29 30 30 29 30 33 27 25 24
23 24 25 26 27 28 29 29 29 30 30 29 29 29 28 29 30 31 31 32 33 33 33 33 33 33 33 34 33 33 33 29 28 29 30 30 31 33 34 37 36 32 28
23 25 26 27 28 29 30 30 30 30 31 31 30 30 30 30 30 31 31 33 33 34 36 36 36 36 36 36 36 34 35 35 33 33 32 32 32 32 32 34 36 35 30
24 25 26 27 29 30 30 31 31 32 32 32 32 32 32 31 31 31 32 32 33 34 35 36 36 37 37 37 37 37 36 36 36 36 36 36 35 32 32 33 33 35 34
24 26 27 28 30 31 32 33 33 33 34 34 34 34 33 34 34 33 33 34 34 35 36 36 37 37 38 38 38 38 38 39 38 38 36 37 37 36 34 35 33 35 39
26 27 29 30 31 32 33 33 34 35 35 35 36 35 35 35 35 35 36 37 37 37 38 38 38 38 38 38 38 39 40 40 39 40 40 39 38 38 38 37 36 36 39
27 29 30 31 32 33 34 35 36 37 38 37 38 38 38 37 37 38 38 38 39 39 39 39 40 39 39 39 39 40 40 42 42 42 41 43 40 40 39 40 40 39 38
29 30 32 33 35 36 37 38 38 39 39 39 39 40 39 39 39 40 40 40 40 40 40 40 40 40 40 40 40 41 41 42 43 44 43 43 41 43 41 41 42 43 41
31 34 36 37 38 39 40 40 41 41 41 41 41 42 42 41 42 43 42 42 42 42 42 41 41 42 42 42 41 41 41 41 41 42 44 45 44 44 42 44 43 42 44
32 36 38 39 40 40 41 41 42 42 43 43 43 44 44 43 43 44 43 43 43 44 43 43 43 43 43 42 42 43 43 43 42 41 42 43 45 45 45 43 43 43 43
36 40 42 42 42 42 43 42 43 44 43 44 44 45 44 43 44 45 45 44 44 44 44 44 44 43 43 42 44 44 44 44 45 44 42 42 43 44 45 46 45 45 45
39 43 43 44 44 45 44 44 45 44 44 44 45 44 44 44 45 45 45 46 46 46 46 46 46 46 44 44 44 45 46 46 47 48 46 44 43 43 44 45 46 46 46
44 45 45 44 44 45 44 46 45 44 45 45 45 45 44 46 45 45 46 46 47 47 47 47 47 47 46 46 46 47 46 47 47 48 47 47 45 45 44 44 45 45 46
46 45 45 44 44 44 44 45 44 45 46 46 46 45 46 47 47 47 47 48 47 48 47 47 47 47 46 47 47 48 47 48 47 47 47 47 47 47 47 47 47 46 44
44 44 42 43 43 44 45 45 45 45 46 47 46 46 47 48 48 49 49 49 49 48 48 47 47 48 47 47 48 48 47 47 47 46 46 46 46 46 46 47 48 47 47
42 43 42 42 43 44 43 44 47 47 47 46 45 46 46 47 48 48 48 47 48 49 48 48 47 49 49 48 48 47 46 47 47 45 44 45 45 45 44 44 45 47 45
43 42 42 44 44 42 42 45 44 46 44 43 44 45 45 46 46 46 46 47 48 48 48 50 47 47 47 46 48 47 46 46 47 46 45 43 45 46 45 43 43 44 42
41 41 42 41 41 40 41 42 43 42 42 43 44 44 44 44 44 46 46 46 46 48 48 49 49 46 46 47 47 48 48 48 48 49 46 46 48 48 47 46 44 43 43
39 39 39 40 39 38 38 42 41 41 41 41 42 43 42 42 42 43 43 44 44 44 45 46 47 47 46 46 47 48 48 48 48 46 48 50 50 49 48 47 46 45 42
38 37 38 39 40 37 39 39 40 39 40 41 41 41 41 42 40 40 40 41 42 42 43 45 47 47 46 46 46 46 46 47 48 48 48 49 50 50 49 47 44 43 43
35 36 37 38 39 39 39 38 39 39 39 39 39 39 39 39 39 38 39 39 38 39 43 43 44 47 47 46 48 49 48 48 50 52 50 50 49 49 47 46 45 42 41
33 34 35 37 37 37 38 37 36 35 36 38 38 37 38 39 39 39 40 37 39 42 43 44 44 44 46 48 48 49 49 49 49 49 50 50 49 48 47 46 46 43 43
Wind_Direction
329 332 334 334 335 336 333 331 327 323 319 312 306 306 306 313 313 313 312 308 310 314 312 308 309 312 306 311 307 304 306 306 307 303 298 298 300 298 298 300 300 298 300
322 329 332 333 335 333 335 334 331 328 325 317 310 308 303 311 317 314 314 313 309 310 307 306 307 309 304 301 304 302 301 301 301 302 300 296 296 293 292 293 294 295 297
319 323 328 332 333 334 334 334 335 333 330 326 319 312 309 309 310 311 313 314 315 309 308 304 302 302 304 299 300 296 292 290 293 294 295 295 292 298 299 292 288 288 289
323 325 327 330 333 334 335 336 337 337 336 335 330 324 316 309 308 308 309 313 318 315 314 308 304 301 300 298 297 297 294 291 286 287 286 288 294 293 293 299 297 289 285
323 325 327 332 335 336 335 337 338 340 340 340 339 332 324 317 312 310 309 310 311 313 312 309 307 303 300 297 295 295 292 290 289 285 286 283 283 285 287 288 294 294 290
326 329 334 335 336 338 338 338 338 338 339 339 340 338 331 324 320 315 311 308 308 307 308 308 306 303 302 298 295 293 290 290 288 286 283 283 283 281 281 281 284 287 290
327 328 330 331 334 336 337 337 337 336 336 337 336 336 333 331 326 322 318 313 310 308 306 306 303 301 299 298 297 293 291 288 287 285 285 283 282 283 281 281 280 282 285
327 328 329 330 330 333 333 333 333 333 333 332 331 331 330 328 326 324 321 318 315 311 310 307 305 303 300 298 297 295 291 289 287 285 284 283 282 280 279 280 281 281 279
324 326 327 328 328 330 330 330 329 329 329 328 327 327 326 325 322 321 320 318 316 313 311 310 307 305 302 299 297 294 293 291 287 286 284 283 281 280 278 278 277 277 277
322 324 325 327 328 329 329 329 329 328 327 326 325 323 323 322 321 319 317 315 314 313 312 310 309 307 305 303 299 295 292 291 292 289 284 282 282 280 278 276 275 274 275
322 323 324 325 326 325 325 326 325 324 324 323 322 321 320 320 319 317 316 314 313 312 311 310 308 307 305 305 302 299 295 291 290 290 291 285 282 280 279 276 274 272 271
319 320 321 321 321 322 322 321 321 321 322 321 320 319 318 318 317 316 315 315 313 312 310 309 308 306 305 303 302 301 299 295 290 288 288 288 290 283 280 276 275 272 271
317 318 319 319 319 319 320 319 320 319 320 320 319 318 317 316 315 315 314 313 312 311 310 309 307 306 304 303 301 300 300 298 295 292 287 285 286 286 286 280 277 274 273
317 318 318 319 319 319 319 319 319 319 318 318 317 316 315 314 315 314 313 313 312 310 309 308 307 306 304 302 300 299 298 297 296 295 293 290 285 282 283 283 281 279 275
314 316 318 318 318 318 319 319 319 319 318 317 316 315 315 314 314 313 312 313 312 310 309 307 306 306 304 302 300 299 298 297 295 293 293 292 290 287 282 280 280 279 277
315 316 318 318 318 318 318 319 318 318 319 317 316 316 315 315 314 313 312 311 310 309 308 306 305 304 303 303 301 300 297 296 294 291 291 290 290 289 288 284 280 277 276
316 316 316 317 317 317 318 317 317 318 317 316 316 315 315 314 313 312 312 310 310 309 307 306 305 303 302 302 300 299 297 295 294 292 290 288 288 287 287 286 284 281 277
315 315 315 317 317 317 317 316 316 316 315 314 314 314 313 312 312 311 310 309 308 307 306 305 304 303 303 302 301 299 297 295 293 292 290 289 287 286 284 283 282 281 280
315 315 317 317 317 316 316 315 315 314 314 313 313 313 313 311 311 310 309 309 308 307 306 305 304 302 302 302 301 299 297 295 294 293 291 289 287 287 286 283 281 280 279
317 317 317 317 316 316 316 315 313 313 312 313 314 314 313 312 311 310 309 309 308 306 305 304 303 302 300 300 299 299 297 294 293 293 292 291 288 287 287 286 283 280 279
318 318 317 316 316 318 317 315 314 314 315 316 316 315 315 313 312 311 311 309 308 306 305 304 304 303 301 301 299 297 296 294 293 291 291 291 290 288 287 286 284 282 284
320 320 319 319 319 320 318 317 316 318 318 317 316 315 315 315 313 312 311 310 309 307 306 305 303 303 303 301 300 297 295 294 292 290 290 289 288 287 285 284 284 284 281
323 324 322 322 322 322 321 319 319 320 319 319 318 317 317 317 316 314 313 313 312 310 309 308 305 304 303 302 301 298 296 294 292 291 290 288 287 285 284 283 282 282 281
326 327 325 324 323 324 323 321 321 321 320 319 319 320 319 318 318 318 317 315 314 313 311 309 307 306 305 304 302 299 296 293 292 291 290 288 286 284 283 282 281 280 277
330 329 327 326 325 325 324 324 322 321 320 320 320 321 321 320 320 319 319 317 317 315 313 312 310 308 306 305 303 300 298 295 291 289 288 286 285 283 282 281 279 279 278
332 331 330 329 328 328 326 325 325 323 321 320 321 321 321 320 320 320 319 320 317 316 315 313 312 311 308 306 304 302 301 298 295 290 286 284 284 282 279 279 278 277 275